Location: Street
(51.1247°N, 2.7429°W)
Time: 19:10:45
(UTC+00:00)

N. Korean satellite - Pass Details

Date: 30 October 2020
Orbit: 453 x 503 km, 97.2° (Epoch: 04 December)

Event Time Altitude Azimuth Distance (km) Brightness Sun altitude
Rises 17:51:29 0° 207° (SSW) 2,533 10.8 -10.5°
Reaches altitude 10° 17:54:12 10° 231° (SW) 1,648 10.3 -10.9°
Maximum altitude 17:56:24 16° 269° (W) 1,334 10.1 -11.2°
Drops below altitude 10° 17:58:36 10° 308° (NW) 1,639 9.9 -11.6°
Sets 18:01:19 0° 332° (NNW) 2,512 10.5 -12.0°
